Time,TemperatureF,DewpointF,PressureIn,WindDirection,WindDirectionDegrees,WindSpeedMPH,WindSpeedGustMPH,Humidity,HourlyPrecipIn,Conditions,Clouds,dailyrainin,SolarRadiationWatts/m^2,SoftwareType,DateUTC
2013-06-24 00:10:00,69.7,66.6,23.19,SW,223,0.0,0.0,90,0.31,,,0.03,0,Wunderground v.1.15,2013-06-24 04:10:00,
2013-06-24 00:20:00,69.5,66.8,23.19,North,9,0.0,0.0,91,0.54,,,0.06,0,Wunderground v.1.15,2013-06-24 04:20:00,
2013-06-24 00:30:00,69.2,66.8,23.19,NNW,333,0.0,0.0,92,2.85,,,0.20,0,Wunderground v.1.15,2013-06-24 04:30:00,
2013-06-24 00:40:00,69.0,66.6,23.19,NNW,333,0.0,0.0,92,0.36,,,0.27,0,Wunderground v.1.15,2013-06-24 04:40:00,
2013-06-24 00:50:00,69.0,66.6,23.18,NNW,333,0.0,0.0,92,0.39,,,0.31,0,Wunderground v.1.15,2013-06-24 04:50:00,
2013-06-24 01:10:00,68.8,66.7,23.18,NNW,333,0.0,0.0,93,0.14,,,0.39,0,Wunderground v.1.15,2013-06-24 05:10:00,
2013-06-24 01:20:00,69.0,66.9,23.18,NNW,333,0.0,0.0,93,0.15,,,0.41,0,Wunderground v.1.15,2013-06-24 05:20:00,
2013-06-24 01:30:00,69.2,67.1,23.18,West,269,0.0,0.0,93,0.10,,,0.43,0,Wunderground v.1.15,2013-06-24 05:30:00,
2013-06-24 01:40:00,69.3,67.2,23.18,WNW,288,0.0,0.0,93,0.06,,,0.43,0,Wunderground v.1.15,2013-06-24 05:40:00,
2013-06-24 01:50:00,69.5,67.4,23.18,WNW,294,0.0,0.0,93,0.04,,,0.44,0,Wunderground v.1.15,2013-06-24 05:50:00,
2013-06-24 02:10:00,69.3,67.2,23.18,WNW,294,0.0,0.0,93,0.00,,,0.44,0,Wunderground v.1.15,2013-06-24 06:10:00,
2013-06-24 02:20:00,69.2,67.1,23.18,WNW,294,0.0,0.0,93,0.00,,,0.44,0,Wunderground v.1.15,2013-06-24 06:20:00,
2013-06-24 02:30:00,69.0,66.9,23.18,WNW,294,0.0,0.0,93,0.00,,,0.44,0,Wunderground v.1.15,2013-06-24 06:30:00,
2013-06-24 02:40:00,68.8,66.7,23.18,WNW,294,0.0,0.0,93,0.00,,,0.44,0,Wunderground v.1.15,2013-06-24 06:40:00,
2013-06-24 02:50:00,68.8,66.7,23.18,WNW,294,0.0,0.0,93,0.00,,,0.44,0,Wunderground v.1.15,2013-06-24 06:50:00,
2013-06-24 03:20:00,68.7,66.6,23.18,WNW,294,0.0,0.0,93,0.00,,,0.44,0,Wunderground v.1.15,2013-06-24 07:20:00,
2013-06-24 03:50:00,68.7,66.6,23.18,WNW,294,0.0,0.0,93,0.00,,,0.44,0,Wunderground v.1.15,2013-06-24 07:50:00,
2013-06-24 04:10:00,68.3,66.2,23.18,WNW,294,0.0,0.0,93,0.00,,,0.44,0,Wunderground v.1.15,2013-06-24 08:10:00,
2013-06-24 04:20:00,68.3,66.2,23.18,WNW,294,0.0,0.0,93,0.00,,,0.44,0,Wunderground v.1.15,2013-06-24 08:20:00,
2013-06-24 04:40:00,68.3,66.2,23.18,WNW,294,0.0,0.0,93,0.00,,,0.44,0,Wunderground v.1.15,2013-06-24 08:40:00,
2013-06-24 04:50:00,68.3,66.2,23.18,WNW,294,0.0,0.0,93,0.00,,,0.44,0,Wunderground v.1.15,2013-06-24 08:50:00,
2013-06-24 05:50:00,69.0,67.2,23.18,West,279,0.0,0.0,94,0.00,,,0.44,26,Wunderground v.1.15,2013-06-24 09:50:00,
2013-06-24 06:20:00,69.0,67.2,23.18,West,274,0.0,0.0,94,0.00,,,0.44,47,Wunderground v.1.15,2013-06-24 10:20:00,
2013-06-24 06:30:00,69.0,67.2,23.18,West,266,0.0,0.0,94,0.00,,,0.44,58,Wunderground v.1.15,2013-06-24 10:30:00,
2013-06-24 06:40:00,69.2,67.4,23.19,West,267,0.0,0.0,94,0.00,,,0.44,67,Wunderground v.1.15,2013-06-24 10:40:00,
2013-06-24 07:00:00,69.7,67.6,23.19,WSW,245,0.0,0.0,93,0.00,,,0.44,91,Wunderground v.1.15,2013-06-24 11:00:00,
2013-06-24 07:10:00,69.8,67.7,23.19,WNW,289,0.0,0.0,93,0.00,,,0.44,91,Wunderground v.1.15,2013-06-24 11:10:00,
2013-06-24 07:20:00,70.3,68.2,23.19,WSW,248,0.0,0.0,93,0.00,,,0.44,237,Wunderground v.1.15,2013-06-24 11:20:00,
2013-06-24 07:40:00,71.4,68.3,23.19,WNW,292,0.0,0.0,90,0.00,,,0.44,285,Wunderground v.1.15,2013-06-24 11:40:00,
2013-06-24 07:50:00,72.0,67.9,23.19,West,259,0.0,0.0,87,0.00,,,0.44,309,Wunderground v.1.15,2013-06-24 11:50:00,
2013-06-24 08:10:00,72.9,67.8,23.19,SW,230,2.0,5.0,84,0.00,,,0.44,229,Wunderground v.1.15,2013-06-24 12:10:00,
2013-06-24 08:20:00,73.1,68.0,23.19,WNW,294,2.0,2.0,84,0.00,,,0.44,214,Wunderground v.1.15,2013-06-24 12:20:00,
2013-06-24 08:30:00,72.9,67.1,23.19,NW,304,3.0,3.0,82,0.00,,,0.44,461,Wunderground v.1.15,2013-06-24 12:30:00,
2013-06-24 08:40:00,73.2,67.4,23.19,WNW,300,1.0,1.0,82,0.00,,,0.44,533,Wunderground v.1.15,2013-06-24 12:40:00,
2013-06-24 08:50:00,73.8,67.6,23.19,WNW,289,0.0,0.0,81,0.00,,,0.44,304,Wunderground v.1.15,2013-06-24 12:50:00,
2013-06-24 09:10:00,74.6,67.3,23.19,WSW,247,0.0,0.0,78,0.00,,,0.45,631,Wunderground v.1.15,2013-06-24 13:10:00,
2013-06-24 09:20:00,74.6,66.9,23.19,NW,320,0.0,0.0,77,0.00,,,0.45,603,Wunderground v.1.15,2013-06-24 13:20:00,
2013-06-24 09:40:00,75.0,66.9,23.18,WNW,288,0.0,0.0,76,0.00,,,0.45,371,Wunderground v.1.15,2013-06-24 13:40:00,
2013-06-24 09:50:00,75.3,67.2,23.18,SSW,213,0.0,0.0,76,0.00,,,0.45,689,Wunderground v.1.15,2013-06-24 13:50:00,
2013-06-24 10:10:00,76.6,68.1,23.18,WSW,242,0.0,0.0,75,0.00,,,0.45,691,Wunderground v.1.15,2013-06-24 14:10:00,
2013-06-24 10:20:00,76.9,67.6,23.18,SW,234,0.0,0.0,73,0.00,,,0.45,752,Wunderground v.1.15,2013-06-24 14:20:00,
2013-06-24 10:30:00,77.1,67.4,23.18,WNW,287,0.0,0.0,72,0.00,,,0.45,622,Wunderground v.1.15,2013-06-24 14:30:00,
2013-06-24 10:40:00,77.8,67.2,23.18,WNW,296,0.0,0.0,70,0.00,,,0.45,747,Wunderground v.1.15,2013-06-24 14:40:00,
2013-06-24 10:50:00,78.2,67.6,23.18,NW,306,0.0,0.0,70,0.00,,,0.45,765,Wunderground v.1.15,2013-06-24 14:50:00,
2013-06-24 11:10:00,78.9,68.3,23.18,WNW,303,0.0,0.0,70,0.00,,,0.45,803,Wunderground v.1.15,2013-06-24 15:10:00,
2013-06-24 11:20:00,79.3,68.2,23.18,NW,304,0.0,0.0,69,0.00,,,0.45,807,Wunderground v.1.15,2013-06-24 15:20:00,
2013-06-24 11:40:00,80.2,68.2,23.18,NW,319,0.0,0.0,67,0.00,,,0.45,828,Wunderground v.1.15,2013-06-24 15:40:00,
2013-06-24 11:50:00,81.0,69.0,23.18,NW,304,0.0,0.0,67,0.00,,,0.45,837,Wunderground v.1.15,2013-06-24 15:50:00,
2013-06-24 12:10:00,81.5,68.6,23.18,East,91,0.0,0.0,65,0.00,,,0.45,856,Wunderground v.1.15,2013-06-24 16:10:00,
2013-06-24 12:20:00,81.7,68.3,23.18,WNW,289,0.0,0.0,64,0.00,,,0.45,860,Wunderground v.1.15,2013-06-24 16:20:00,
2013-06-24 12:40:00,82.7,68.4,23.18,SW,229,0.0,2.0,62,0.00,,,0.45,868,Wunderground v.1.15,2013-06-24 16:40:00,
2013-06-24 12:50:00,82.7,68.4,23.18,WSW,239,2.0,2.0,62,0.00,,,0.45,868,Wunderground v.1.15,2013-06-24 16:50:00,
2013-06-24 13:10:00,83.3,69.4,23.18,ENE,66,6.0,6.0,63,0.00,,,0.45,867,Wunderground v.1.15,2013-06-24 17:10:00,
2013-06-24 13:20:00,83.9,69.5,23.18,NW,313,5.0,5.0,62,0.00,,,0.45,889,Wunderground v.1.15,2013-06-24 17:20:00,
2013-06-24 13:30:00,84.0,70.0,23.18,NW,321,6.0,7.0,63,0.00,,,0.45,773,Wunderground v.1.15,2013-06-24 17:30:00,
2013-06-24 13:40:00,84.2,70.7,23.18,WNW,285,6.0,6.0,64,0.00,,,0.45,849,Wunderground v.1.15,2013-06-24 17:40:00,
2013-06-24 13:50:00,84.4,70.9,23.17,ENE,59,5.0,5.0,64,0.00,,,0.45,974,Wunderground v.1.15,2013-06-24 17:50:00,
2013-06-24 14:00:00,84.6,70.6,23.17,SSW,207,4.0,4.0,63,0.00,,,0.45,299,Wunderground v.1.15,2013-06-24 18:00:00,
2013-06-24 14:10:00,84.8,70.8,23.17,WNW,291,4.0,4.0,63,0.00,,,0.45,571,Wunderground v.1.15,2013-06-24 18:10:00,
2013-06-24 14:20:00,85.4,70.9,23.17,SSE,159,4.0,4.0,62,0.00,,,0.45,733,Wunderground v.1.15,2013-06-24 18:20:00,
2013-06-24 14:40:00,84.6,69.7,23.17,WNW,282,5.0,5.0,61,0.00,,,0.45,499,Wunderground v.1.15,2013-06-24 18:40:00,
2013-06-24 14:50:00,85.2,70.2,23.17,WNW,288,4.0,5.0,61,0.00,,,0.45,705,Wunderground v.1.15,2013-06-24 18:50:00,
2013-06-24 15:20:00,86.9,71.3,23.16,WSW,252,4.0,10.0,60,0.00,,,0.45,700,Wunderground v.1.15,2013-06-24 19:20:00,
2013-06-24 15:40:00,86.9,71.3,23.16,SW,217,5.0,6.0,60,0.00,,,0.45,738,Wunderground v.1.15,2013-06-24 19:40:00,
2013-06-24 15:50:00,87.5,70.4,23.16,West,268,5.0,8.0,57,0.00,,,0.45,705,Wunderground v.1.15,2013-06-24 19:50:00,
2013-06-24 16:10:00,86.6,70.6,23.16,West,263,6.0,6.0,59,0.00,,,0.45,666,Wunderground v.1.15,2013-06-24 20:10:00,
2013-06-24 16:20:00,87.1,70.5,23.16,SW,232,5.0,7.0,58,0.00,,,0.45,649,Wunderground v.1.15,2013-06-24 20:20:00,
2013-06-24 16:30:00,86.9,69.8,23.16,WSW,252,6.0,11.0,57,0.00,,,0.45,599,Wunderground v.1.15,2013-06-24 20:30:00,
2013-06-24 16:40:00,86.6,70.1,23.16,SW,233,6.0,6.0,58,0.00,,,0.45,578,Wunderground v.1.15,2013-06-24 20:40:00,
2013-06-24 16:50:00,87.3,70.2,23.16,SE,140,4.0,8.0,57,0.00,,,0.45,561,Wunderground v.1.15,2013-06-24 20:50:00,
2013-06-24 17:10:00,86.0,69.5,23.16,West,272,5.0,5.0,58,0.00,,,0.45,123,Wunderground v.1.15,2013-06-24 21:10:00,
2013-06-24 17:40:00,81.9,60.9,23.16,NNE,19,5.0,5.0,49,0.00,,,0.45,7,Wunderground v.1.15,2013-06-24 21:40:00,
2013-06-24 17:50:00,79.7,61.1,23.16,NE,43,2.0,2.0,53,0.00,,,0.45,18,Wunderground v.1.15,2013-06-24 21:50:00,
2013-06-24 18:20:00,73.6,63.6,23.16,SW,228,4.0,4.0,71,0.00,,,0.46,5,Wunderground v.1.15,2013-06-24 22:20:00,
2013-06-24 18:40:00,71.0,63.4,23.16,SSW,211,2.0,2.0,77,0.05,,,0.47,7,Wunderground v.1.15,2013-06-24 22:40:00,
2013-06-24 18:50:00,70.3,63.8,23.16,SW,229,2.0,4.0,80,0.05,,,0.48,9,Wunderground v.1.15,2013-06-24 22:50:00,
2013-06-24 19:00:00,69.5,63.4,23.16,SW,219,2.0,2.0,81,0.07,,,0.49,11,Wunderground v.1.15,2013-06-24 23:00:00,
2013-06-24 19:10:00,68.8,63.8,23.16,NW,311,2.0,5.0,84,0.08,,,0.50,14,Wunderground v.1.15,2013-06-24 23:10:00,
2013-06-24 19:20:00,68.5,63.8,23.16,SW,224,3.0,3.0,85,0.05,,,0.50,21,Wunderground v.1.15,2013-06-24 23:20:00,
2013-06-24 19:40:00,68.3,63.6,23.16,West,267,3.0,3.0,85,0.00,,,0.50,60,Wunderground v.1.15,2013-06-24 23:40:00,
2013-06-24 19:50:00,68.5,64.1,23.16,SW,229,1.0,3.0,86,0.00,,,0.50,76,Wunderground v.1.15,2013-06-24 23:50:00,
2013-06-24 20:10:00,68.8,63.8,23.16,WSW,258,2.0,2.0,84,0.00,,,0.50,76,Wunderground v.1.15,2013-06-25 00:10:00,
2013-06-24 20:20:00,68.5,63.5,23.17,SSW,209,3.0,3.0,84,0.00,,,0.50,47,Wunderground v.1.15,2013-06-25 00:20:00,
2013-06-24 20:40:00,68.0,63.3,23.17,WSW,254,3.0,4.0,85,0.00,,,0.50,12,Wunderground v.1.15,2013-06-25 00:40:00,
2013-06-24 20:50:00,67.8,63.5,23.17,WSW,248,1.0,4.0,86,0.00,,,0.50,7,Wunderground v.1.15,2013-06-25 00:50:00,
2013-06-24 21:10:00,67.5,63.5,23.17,WSW,241,2.0,2.0,87,0.00,,,0.50,0,Wunderground v.1.15,2013-06-25 01:10:00,
2013-06-24 21:20:00,67.5,63.5,23.17,SW,227,1.0,1.0,87,0.00,,,0.50,0,Wunderground v.1.15,2013-06-25 01:20:00,
2013-06-24 21:30:00,67.3,63.3,23.17,NW,311,1.0,1.0,87,0.00,,,0.50,0,Wunderground v.1.15,2013-06-25 01:30:00,
2013-06-24 21:40:00,67.3,63.3,23.17,SW,226,1.0,1.0,87,0.00,,,0.50,0,Wunderground v.1.15,2013-06-25 01:40:00,
2013-06-24 21:49:00,67.3,63.3,23.17,SSW,204,2.0,2.0,87,0.00,,,0.50,0,Wunderground v.1.15,2013-06-25 01:49:00,
2013-06-24 22:09:00,67.3,63.3,23.17,WSW,243,1.0,1.0,87,0.00,,,0.50,0,Wunderground v.1.15,2013-06-25 02:09:00,
2013-06-24 22:20:00,67.5,63.2,23.17,SW,234,1.0,4.0,86,0.00,,,0.50,0,Wunderground v.1.15,2013-06-25 02:20:00,
2013-06-24 22:39:00,67.5,62.8,23.17,SW,235,1.0,1.0,85,0.00,,,0.50,0,Wunderground v.1.15,2013-06-25 02:39:00,
2013-06-24 22:50:00,67.3,62.6,23.17,WSW,246,1.0,1.0,85,0.00,,,0.50,0,Wunderground v.1.15,2013-06-25 02:50:00,
2013-06-24 23:00:00,67.2,62.9,23.17,SW,234,1.0,1.0,86,0.00,,,0.50,0,Wunderground v.1.15,2013-06-25 03:00:00,
2013-06-24 23:10:00,67.2,62.9,23.17,SW,234,0.0,0.0,86,0.00,,,0.50,0,Wunderground v.1.15,2013-06-25 03:10:00,
2013-06-24 23:20:00,67.0,63.0,23.16,West,273,1.0,1.0,87,0.00,,,0.50,0,Wunderground v.1.15,2013-06-25 03:20:00,
2013-06-24 23:39:00,67.0,63.0,23.16,West,277,0.0,1.0,87,0.00,,,0.50,0,Wunderground v.1.15,2013-06-25 03:39:00,
2013-06-24 23:50:00,66.8,62.8,23.16,West,277,0.0,2.0,87,0.00,,,0.50,0,Wunderground v.1.15,2013-06-25 03:50:00,